Location: Caixon
(43.4106°N, 0.0273°E)
Time: 15:51:18
(UTC+00:00)

Cosmos 389 Rocket - Pass Details

Date: 16 October 2021
Orbit: 439 x 468 km, 81.1° (Epoch: 28 November)

Event Time Altitude Azimuth Distance (km) Brightness Sun altitude
Rises 05:13:57 0° 349° (NNW) 2,472 6.0 -11.9°
Reaches altitude 10° 05:16:02 10° 348° (NNW) 1,599 5.1 -11.5°
Maximum altitude 05:19:31 83° 262° (W) 467 2.4 -10.9°
Drops below altitude 10° 05:23:01 10° 173° (S) 1,602 5.3 -10.2°
Sets 05:25:06 0° 173° (S) 2,477 6.3 -9.8°
